This demonstration page uses our WeatherBlox Daily Observations layout. Learn more.

Left ArrowRight Arrow

38.83388, -104.82136

Hourly Observations for March 25, 2021

Temp ( °F °C ) Dew Point ( °F °C ) Humidity (%) Winds ( mph kmh ) Pressure ( in mb ) Visibility ( mi km ) Precip ( " mm )
12:18 am 00:18 Partly Cloudy 25 -4 19 -7 80 80 NW 6 9 29.54 1000 10 16 0.00 0.00
12:58 am 00:58 Clear 25 -3.8 20 -6.9 79 79 NNW 6 9 29.52 1000 10 16 0.00 0.00
1:58 am 01:58 Clear 24 -4.7 19 -7.3 82 82 NW 6 9 29.51 999 10 16 0.00 0.00
2:58 am 02:58 Clear 25 -3.9 19 -7.1 79 79 WNW 5 7 29.47 998 10 16 0.00 0.00
3:58 am 03:58 Clear 26 -3.4 17 -8.3 69 69 E 3 6 29.44 997 10 16 0.00 0.00
4:58 am 04:58 Clear 27 -3 16 -8.9 64 64 Calm 29.44 997 10 16 0.00 0.00
5:58 am 05:58 Clear 25 -3.8 17 -8.1 72 72 SSW 3 6 29.46 998 10 16 0.00 0.00
6:58 am 06:58 Sunny 27 -2.6 14 -10.2 56 56 NW 5 7 29.44 997 10 16 0.00 0.00
7:58 am 07:58 Sunny 31 -0.3 15 -9.4 51 51 NW 3 6 29.42 996 10 16 0.00 0.00
8:58 am 08:58 Sunny 33 0.8 19 -7.3 55 55 ESE 5 7 29.44 997 10 16 0.00 0.00
9:58 am 09:58 Partly Cloudy 36 2.4 16 -8.9 43 43 Calm 29.44 997 10 16 0.00 0.00
10:56 am 10:56 Mostly Sunny 37 2.6 19 -7 50 50 ESE 5 7 29.43 997 10 16 0.00 0.00
11:56 am 11:56 Mostly Sunny 38 3.6 18 -7.9 43 43 SE 3 6 29.41 996 10 16 0.00 0.00
1:58 pm 13:58 Partly Cloudy 41 4.9 22 -5.7 47 47 ESE 3 6 29.38 995 10 16 0.00 0.00
2:58 pm 14:58 Mostly Sunny 41 5.2 16 -8.9 36 36 SSE 10 17 29.34 994 10 16 0.00 0.00
3:58 pm 15:58 Mostly Cloudy 42 5.6 15 -9.4 33 33 SSE 13 20 29.34 993 10 16 0.00 0.00
4:58 pm 16:58 Mostly Sunny 41 5.2 15 -9.7 34 34 S 8 13 29.34 993 10 16 0.00 0.00
5:58 pm 17:58 Mostly Cloudy 41 4.8 13 -10.4 33 33 S 9 15 29.34 993 10 16 0.00 0.00
6:58 pm 18:58 Mostly Cloudy 40 4.5 16 -9 37 37 S 5 7 29.36 994 10 16 0.00 0.00
7:58 pm 19:58 Cloudy 39 4 17 -8.3 41 41 Calm 29.35 994 10 16 0.00 0.00
8:58 pm 20:58 Mostly Cloudy 39 3.9 16 -9.1 38 38 SSW 5 7 29.36 994 10 16 0.00 0.00
9:58 pm 21:58 Mostly Cloudy 39 3.9 16 -8.9 39 39 WSW 5 7 29.34 994 10 16 0.00 0.00
10:58 pm 22:58 Cloudy 38 3.3 17 -8.4 42 42 W 9 15 29.58 1002 10 16 0.00 0.00
11:58 pm 23:58 Cloudy 38 3.4 17 -8.4 42 42 W 10 17 29.57 1001 10 16 0.00 0.00

Powered by AerisWeather